User: anonymous   Login
Location: Bergnershof
(48.9468°N, 10.9431°E)
Time: 22:11:28
(UTC+00:00)
Language:

Meteor 1-18 Rocket - Orbit

View from above orbital plane
View from above orbital plane
View from above satellite
View from above satellite

Ground track
Ground track

The orbit data is extracted from the following two-line orbital elements,

1  7364U 74052B   21128.47430650  .00000138  00000-0  75186-4 0  9994
2  7364  81.2340 211.7360 0050503 110.8327 249.8261 14.06039343401094
Epoch (UTC): 08 May 2021 11:23:00
Eccentricity: 0.0050503
inclination: 81.2340°
perigee height: 836 km
apogee height: 909 km
right ascension of ascending node: 211.7360°
argument of perigee: 110.8327°
revolutions per day: 14.06039343
mean anomaly at epoch: 249.8261°
orbit number at epoch: 40109

The dashed part of the orbit path shows where the satellite is in the earth's shadow,  

DLR